TimeCST,TemperatureF,Dew PointF,Humidity,Sea Level PressureIn,VisibilityMPH,Wind Direction,Wind SpeedMPH,Gust SpeedMPH,PrecipitationIn,Events,Conditions,WindDirDegrees,DateUTC
12:15 AM,35.6,28.4,75,30.29,10.0,South,4.6,-,N/A,,Clear,170,2012-11-15 06:15:00
12:35 AM,35.6,28.4,75,30.29,10.0,South,3.5,-,N/A,,Clear,170,2012-11-15 06:35:00
12:55 AM,35.6,26.6,70,30.28,10.0,South,4.6,-,N/A,,Clear,170,2012-11-15 06:55:00
1:15 AM,35.6,26.6,70,30.28,10.0,South,4.6,-,N/A,,Clear,170,2012-11-15 07:15:00
1:35 AM,35.6,26.6,70,30.29,10.0,SSE,3.5,-,N/A,,Clear,160,2012-11-15 07:35:00
1:55 AM,33.8,26.6,75,30.29,10.0,SSE,3.5,-,N/A,,Clear,160,2012-11-15 07:55:00
2:15 AM,33.8,26.6,75,30.29,10.0,SSE,4.6,-,N/A,,Clear,150,2012-11-15 08:15:00
2:35 AM,35.6,28.4,75,30.30,10.0,SSE,4.6,-,N/A,,Clear,150,2012-11-15 08:35:00
2:55 AM,33.8,28.4,81,30.30,10.0,SSE,3.5,-,N/A,,Clear,160,2012-11-15 08:55:00
3:15 AM,35.6,28.4,75,30.30,10.0,SSE,4.6,-,N/A,,Clear,160,2012-11-15 09:15:00
3:35 AM,35.6,28.4,75,30.29,10.0,SSE,4.6,-,N/A,,Clear,160,2012-11-15 09:35:00
3:55 AM,35.6,26.6,70,30.28,10.0,SSE,4.6,-,N/A,,Clear,150,2012-11-15 09:55:00
4:15 AM,35.6,28.4,75,30.28,10.0,SSE,4.6,-,N/A,,Clear,150,2012-11-15 10:15:00
4:35 AM,35.6,26.6,70,30.28,10.0,SSE,4.6,-,N/A,,Clear,150,2012-11-15 10:35:00
4:55 AM,35.6,28.4,75,30.29,10.0,SE,3.5,-,N/A,,Clear,130,2012-11-15 10:55:00
5:15 AM,33.8,28.4,81,30.29,10.0,SE,4.6,-,N/A,,Clear,140,2012-11-15 11:15:00
5:55 AM,33.8,28.4,81,30.29,10.0,SSE,4.6,-,N/A,,Clear,160,2012-11-15 11:55:00
6:15 AM,33.8,28.4,81,30.30,10.0,SSE,3.5,-,N/A,,Clear,160,2012-11-15 12:15:00
6:35 AM,32.0,28.4,87,30.30,10.0,SSE,4.6,-,N/A,,Clear,160,2012-11-15 12:35:00
6:55 AM,33.8,28.4,81,30.30,10.0,SSE,4.6,-,N/A,,Clear,160,2012-11-15 12:55:00
7:15 AM,33.8,28.4,81,30.31,10.0,SSE,5.8,-,N/A,,Clear,160,2012-11-15 13:15:00
7:35 AM,33.8,28.4,81,30.31,10.0,SSE,4.6,-,N/A,,Clear,160,2012-11-15 13:35:00
8:15 AM,37.4,30.2,75,30.33,10.0,SSE,5.8,-,N/A,,Clear,160,2012-11-15 14:15:00
8:55 AM,42.8,32.0,66,30.33,10.0,SSE,5.8,-,N/A,,Clear,160,2012-11-15 14:55:00
9:15 AM,42.8,32.0,66,30.33,10.0,SSE,8.1,-,N/A,,Clear,160,2012-11-15 15:15:00
9:35 AM,46.4,32.0,57,30.33,10.0,South,6.9,-,N/A,,Clear,190,2012-11-15 15:35:00
9:55 AM,48.2,32.0,54,30.33,10.0,South,6.9,-,N/A,,Clear,180,2012-11-15 15:55:00
10:15 AM,50.0,32.0,50,30.34,10.0,South,5.8,-,N/A,,Clear,180,2012-11-15 16:15:00
10:35 AM,51.8,32.0,47,30.34,10.0,SSW,6.9,-,N/A,,Clear,200,2012-11-15 16:35:00
10:55 AM,51.8,32.0,47,30.34,10.0,SSW,8.1,-,N/A,,Clear,210,2012-11-15 16:55:00
11:15 AM,51.8,32.0,47,30.33,10.0,SSW,8.1,-,N/A,,Clear,210,2012-11-15 17:15:00
11:55 AM,53.6,32.0,44,30.32,10.0,SSW,5.8,-,N/A,,Clear,210,2012-11-15 17:55:00
12:15 PM,53.6,32.0,44,30.31,10.0,SSW,8.1,-,N/A,,Clear,200,2012-11-15 18:15:00
12:35 PM,53.6,32.0,44,30.31,10.0,SW,6.9,-,N/A,,Clear,220,2012-11-15 18:35:00
12:55 PM,53.6,32.0,44,30.31,10.0,SW,4.6,-,N/A,,Clear,220,2012-11-15 18:55:00
1:15 PM,53.6,32.0,44,30.31,10.0,SSW,5.8,-,N/A,,Clear,200,2012-11-15 19:15:00
1:35 PM,53.6,32.0,44,30.30,10.0,South,3.5,-,N/A,,Scattered Clouds,190,2012-11-15 19:35:00
1:55 PM,53.6,32.0,44,30.30,10.0,South,3.5,-,N/A,,Scattered Clouds,170,2012-11-15 19:55:00
2:15 PM,53.6,33.8,47,30.30,10.0,SSW,3.5,-,N/A,,Scattered Clouds,200,2012-11-15 20:15:00
2:35 PM,53.6,33.8,47,30.30,10.0,SSE,4.6,-,N/A,,Mostly Cloudy,150,2012-11-15 20:35:00
2:55 PM,53.6,33.8,47,30.30,10.0,SSE,4.6,-,N/A,,Scattered Clouds,160,2012-11-15 20:55:00
3:15 PM,53.6,32.0,44,30.30,10.0,South,4.6,-,N/A,,Scattered Clouds,190,2012-11-15 21:15:00
3:35 PM,53.6,33.8,47,30.30,10.0,Calm,Calm,-,N/A,,Scattered Clouds,0,2012-11-15 21:35:00
3:55 PM,53.6,33.8,47,30.30,10.0,Calm,Calm,-,N/A,,Scattered Clouds,0,2012-11-15 21:55:00
4:15 PM,51.8,35.6,54,30.30,10.0,SSE,3.5,-,N/A,,Clear,160,2012-11-15 22:15:00
4:55 PM,50.0,33.8,54,30.31,10.0,South,3.5,-,N/A,,Scattered Clouds,190,2012-11-15 22:55:00
5:15 PM,50.0,33.8,54,30.31,10.0,Calm,Calm,-,N/A,,Scattered Clouds,0,2012-11-15 23:15:00
6:15 PM,48.2,33.8,58,30.33,10.0,Calm,Calm,-,N/A,,Mostly Cloudy,0,2012-11-16 00:15:00
6:35 PM,46.4,33.8,62,30.33,10.0,SW,3.5,-,N/A,,Scattered Clouds,220,2012-11-16 00:35:00
6:55 PM,46.4,33.8,62,30.33,10.0,Calm,Calm,-,N/A,,Mostly Cloudy,0,2012-11-16 00:55:00
7:55 PM,42.8,33.8,70,30.35,10.0,Calm,Calm,-,N/A,,Clear,0,2012-11-16 01:55:00
8:15 PM,42.8,33.8,70,30.35,10.0,Calm,Calm,-,N/A,,Clear,0,2012-11-16 02:15:00
8:35 PM,44.6,33.8,66,30.36,10.0,Calm,Calm,-,N/A,,Clear,0,2012-11-16 02:35:00
8:55 PM,42.8,33.8,70,30.37,10.0,Calm,Calm,-,N/A,,Clear,0,2012-11-16 02:55:00
9:15 PM,41.0,35.6,81,30.37,10.0,Calm,Calm,-,N/A,,Clear,0,2012-11-16 03:15:00
9:55 PM,37.4,32.0,81,30.37,10.0,Calm,Calm,-,N/A,,Scattered Clouds,0,2012-11-16 03:55:00
10:15 PM,35.6,32.0,87,30.38,10.0,WNW,4.6,-,N/A,,Scattered Clouds,300,2012-11-16 04:15:00
10:55 PM,37.4,32.0,81,30.38,10.0,Calm,Calm,-,N/A,,Clear,0,2012-11-16 04:55:00
11:15 PM,35.6,32.0,87,30.38,10.0,Calm,Calm,-,N/A,,Clear,0,2012-11-16 05:15:00
11:35 PM,35.6,32.0,87,30.39,10.0,Calm,Calm,-,N/A,,Clear,0,2012-11-16 05:35:00
11:55 PM,33.8,32.0,93,30.39,10.0,Calm,Calm,-,N/A,,Clear,0,2012-11-16 05:55:00